[TLELIST] Archives

 

[TLELIST] Current TLEs

March 9th 2024 PST

HST 1 20580U 90037B 24068.92377658 .00005648 00000-0 27467-3 0 9993 2 20580 28.4681 296.1126 0002997 25.6095 334.4645 15.16229630661790 ISS (ZARYA) 1 25544U 98067A 24069.23963816 .00013730 00000-0 25016-3 0 9990 2 25544 51.6418 90.7424 0005741 343.9724 92.8274 15.49756209443058 CXO 1 25867U 99040B 24070.02617178 .00001092 00000-0 00000+0 0 9996 2 25867 39.1176 163.9735 8967302 288.9231 0.6120 0.37806651 25348 ...Continue Reading

[TLELIST] Current TLEs

March 8th 2024 PST

HST 1 20580U 90037B 24067.34404284 .00006178 00000-0 30151-3 0 9997 2 20580 28.4686 306.6723 0002901 9.7519 350.3130 15.16212077661551 ISS (ZARYA) 1 25544U 98067A 24068.34399637 .00013954 00000-0 25433-3 0 9996 2 25544 51.6416 95.1785 0005854 339.4735 137.1720 15.49731600442913 CXO 1 25867U 99040B 24070.02617178 .00001092 00000-0 00000+0 0 9996 2 25867 39.1176 163.9735 8967302 288.9231 0.6120 0.37806651 25348 ...Continue Reading

[TLELIST] Current TLEs

March 8th 2024 PST

HST 1 20580U 90037B 24067.34404284 .00006178 00000-0 30151-3 0 9997 2 20580 28.4686 306.6723 0002901 9.7519 350.3130 15.16212077661551 ISS (ZARYA) 1 25544U 98067A 24068.34399637 .00013954 00000-0 25433-3 0 9996 2 25544 51.6416 95.1785 0005854 339.4735 137.1720 15.49731600442913 CXO 1 25867U 99040B 24070.02617178 .00001092 00000-0 00000+0 0 9996 2 25867 39.1176 163.9735 8967302 288.9231 0.6120 0.37806651 25348 ...Continue Reading

[TLELIST] Current TLEs

March 7th 2024 PST

HST 1 20580U 90037B 24067.08075195 .00006091 00000-0 29714-3 0 9990 2 20580 28.4687 308.4324 0002896 6.9802 353.0830 15.16208622661778 ISS (ZARYA) 1 25544U 98067A 24067.37790297 .00014521 00000-0 26457-3 0 9993 2 25544 51.6412 99.9639 0005680 335.2557 148.0116 15.49704815442763 CXO 1 25867U 99040B 24067.38083427 .00001175 00000-0 00000+0 0 9997 2 25867 39.0742 164.2328 8967865 288.7517 0.3763 0.37808367 25332 ...Continue Reading

[TLELIST] Current TLEs

March 6th 2024 PST

HST 1 20580U 90037B 24065.89593651 .00006465 00000-0 31608-3 0 9999 2 20580 28.4691 316.3516 0002826 354.6198 5.4363 15.16194069661596 ISS (ZARYA) 1 25544U 98067A 24066.41192091 .00016814 00000-0 30527-3 0 9995 2 25544 51.6405 104.7454 0005866 332.2559 158.3434 15.49676577442614 CXO 1 25867U 99040B 24067.38083427 .00001175 00000-0 00000+0 0 9997 2 25867 39.0742 164.2328 8967865 288.7517 0.3763 0.37808367 25332 ...Continue Reading

[TLELIST] Current TLEs

March 5th 2024 PST

HST 1 20580U 90037B 24064.90858138 .00005782 00000-0 28181-3 0 9997 2 20580 28.4693 322.9506 0002765 342.9242 17.1257 15.16178820661186 ISS (ZARYA) 1 25544U 98067A 24065.37262438 .00015498 00000-0 28247-3 0 9995 2 25544 51.6404 109.8905 0005838 327.2444 121.5193 15.49636020442451 CXO 1 25867U 99040B 24064.73870897 .00001136 00000-0 00000-0 0 9996 2 25867 39.0237 164.5043 8969530 288.5598 0.5855 0.37810200 14179 ...Continue Reading

[TLELIST] Current TLEs

March 5th 2024 PST

HST 1 20580U 90037B 24064.90858138 .00005782 00000-0 28181-3 0 9997 2 20580 28.4693 322.9506 0002765 342.9242 17.1257 15.16178820661186 ISS (ZARYA) 1 25544U 98067A 24065.37262438 .00015498 00000-0 28247-3 0 9995 2 25544 51.6404 109.8905 0005838 327.2444 121.5193 15.49636020442451 CXO 1 25867U 99040B 24064.73870897 .00001136 00000-0 00000-0 0 9996 2 25867 39.0237 164.5043 8969530 288.5598 0.5855 0.37810200 14179 ...Continue Reading

[TLELIST] Current TLEs

March 5th 2024 PST

HST 1 20580U 90037B 24064.90858138 .00005782 00000-0 28181-3 0 9997 2 20580 28.4693 322.9506 0002765 342.9242 17.1257 15.16178820661186 ISS (ZARYA) 1 25544U 98067A 24065.37262438 .00015498 00000-0 28247-3 0 9995 2 25544 51.6404 109.8905 0005838 327.2444 121.5193 15.49636020442451 CXO 1 25867U 99040B 24064.73870897 .00001136 00000-0 00000-0 0 9996 2 25867 39.0237 164.5043 8969530 288.5598 0.5855 0.37810200 14179 ...Continue Reading

[TLELIST] Current TLEs

March 4th 2024 PST

HST 1 20580U 90037B 24063.85539275 .00006190 00000-0 30251-3 0 9993 2 20580 28.4695 329.9894 0002708 331.6887 28.3557 15.16165504661027 ISS (ZARYA) 1 25544U 98067A 24064.40616281 .00015261 00000-0 27860-3 0 9995 2 25544 51.6400 114.6786 0005770 323.4937 130.1664 15.49603842442307 CXO 1 25867U 99040B 24064.73870897 .00001136 00000-0 00000-0 0 9996 2 25867 39.0237 164.5043 8969530 288.5598 0.5855 0.37810200 14179 ...Continue Reading

[TLELIST] Current TLEs

March 3rd 2024 PST

HST 1 20580U 90037B 24063.13131939 .00005808 00000-0 28332-3 0 9991 2 20580 28.4696 334.8289 0002688 323.4287 36.6122 15.16155999661174 ISS (ZARYA) 1 25544U 98067A 24063.44405839 .00014608 00000-0 26733-3 0 9995 2 25544 51.6407 119.4406 0005836 319.4962 163.4985 15.49571966442151 CXO 1 25867U 99040B 24064.73870897 .00001136 00000-0 00000-0 0 9996 2 25867 39.0237 164.5043 8969530 288.5598 0.5855 0.37810200 14179 ...Continue Reading
  • This mailing list is a public mailing list - anyone may join or leave, at any time.
  • This mailing list is announce-only.

International Space Station (ISS) / Hubble Space Telescope (HST) / Chandra X-Ray Observatory Orbital Data via EMAIL

Privacy Policy:

Private list